Location: Chervonnoye
(48.6000°N, 34.4000°E)
Time: 20:56:06
(UTC+00:00)

CZ-4 R/B - Pass Details

Date: 23 November 2020
Orbit: 532 x 598 km, 97.7° (Epoch: 27 January)

Event Time Altitude Azimuth Distance (km) Brightness Sun altitude
Exits shadow 16:00:55 49° 131° (SE) 715 1.6 -20.4°
Maximum altitude 16:01:46 66° 74° (ENE) 607 1.2 -20.6°
Drops below altitude 10° 16:05:45 10° 352° (N) 1,858 4.0 -21.2°
Sets 16:07:56 0° 350° (N) 2,770 5.0 -21.6°
